When you browse on this site, cookies collect data to enhance your experience and personalize the content and advertising you see.
Visit our Privacy Policy to learn more. By continuing to use the site, you agree to this use of cookies and data.
  • In Spain
  • List of Countries
  • For 7 days
  • Water Temperature
  • Weather Map
  • Weather Widgets
  • user-avatar
    Login

    Hourly Weather Masvingo

    Today, 29 February, Saturday

    Time Temperature Precipitation Wind Pressure Humidity
    00:00 +20°C° 0.2 mm 4 mps 673 mmHg 82%
    01:00 +20°C° 0.2 mm 4 mps 673 mmHg 86%
    02:00 +19°C° 0 mm 6 mps 673 mmHg 90%
    03:00 +19°C° 0.2 mm 6 mps 673 mmHg 91%
    04:00 +19°C° 0.2 mm 6 mps 672 mmHg 92%
    05:00 +19°C° 0.2 mm 5 mps 672 mmHg 93%
    06:00 +17°C° 0.2 mm 5 mps 673 mmHg 93%
    07:00 +17°C° 0.2 mm 6 mps 673 mmHg 93%
    08:00 +16°C° 0.2 mm 6 mps 674 mmHg 93%
    09:00 +17°C° 0.1 mm 6 mps 674 mmHg 90%
    10:00 +17°C° 0.1 mm 5 mps 674 mmHg 87%
    11:00 +19°C° 0.1 mm 5 mps 674 mmHg 84%
    12:00 +19°C° 0 mm 5 mps 674 mmHg 82%
    13:00 +20°C° 0 mm 5 mps 674 mmHg 81%
    14:00 +20°C° 0 mm 5 mps 674 mmHg 79%
    15:00 +20°C° 0 mm 5 mps 673 mmHg 81%
    16:00 +19°C° 0 mm 5 mps 672 mmHg 83%
    17:00 +19°C° 0 mm 5 mps 672 mmHg 85%
    18:00 +17°C° 0 mm 5 mps 672 mmHg 85%
    19:00 +17°C° 0 mm 5 mps 673 mmHg 85%
    20:00 +17°C° 0 mm 5 mps 674 mmHg 86%
    21:00 +17°C° 0 mm 4 mps 674 mmHg 85%
    22:00 +17°C° 0 mm 4 mps 674 mmHg 84%
    23:00 +17°C° 0 mm 4 mps 674 mmHg 83%

    Tomorrow, 1 March, Sunday

    Time Temperature Precipitation Wind Pressure Humidity
    00:00 +17°C° 0 mm 4 mps 674 mmHg 83%
    01:00 +17°C° 0 mm 4 mps 674 mmHg 83%
    02:00 +17°C° 0 mm 4 mps 673 mmHg 82%
    03:00 +15°C° 0 mm 4 mps 673 mmHg 84%
    04:00 +15°C° 0 mm 4 mps 673 mmHg 86%
    05:00 +15°C° 0 mm 4 mps 672 mmHg 88%
    06:00 +15°C° 0 mm 4 mps 673 mmHg 87%
    07:00 +15°C° 0 mm 4 mps 673 mmHg 86%
    08:00 +15°C° 0 mm 5 mps 674 mmHg 85%
    09:00 +18°C° 0 mm 4 mps 674 mmHg 79%
    10:00 +19°C° 0 mm 4 mps 674 mmHg 74%
    11:00 +20°C° 0 mm 3 mps 674 mmHg 69%
    12:00 +20°C° 0 mm 3 mps 673 mmHg 69%
    13:00 +20°C° 0 mm 3 mps 673 mmHg 70%
    14:00 +20°C° 0 mm 3 mps 672 mmHg 71%
    15:00 +20°C° 0 mm 3 mps 672 mmHg 70%
    16:00 +20°C° 0 mm 3 mps 671 mmHg 69%
    17:00 +21°C° 0 mm 3 mps 671 mmHg 69%
    18:00 +19°C° 0 mm 3 mps 671 mmHg 74%
    19:00 +18°C° 0 mm 2 mps 671 mmHg 79%
    20:00 +18°C° 0 mm 1 mps 671 mmHg 84%
    21:00 +16°C° 0 mm 1 mps 671 mmHg 85%
    22:00 +16°C° 0 mm 1 mps 672 mmHg 85%
    23:00 +16°C° 0 mm 1 mps 672 mmHg 85%

    Day after tomorrow, 2 March, Monday

    Time Temperature Precipitation Wind Pressure Humidity
    00:00 +16°C° 0 mm 1 mps 672 mmHg 86%
    01:00 +15°C° 0 mm 1 mps 671 mmHg 86%
    02:00 +15°C° 0 mm 1 mps 671 mmHg 86%
    03:00 +15°C° 0 mm 1 mps 671 mmHg 86%
    04:00 +15°C° 0 mm 1 mps 671 mmHg 85%
    05:00 +15°C° 0 mm 1 mps 671 mmHg 85%
    06:00 +16°C° 0 mm 1 mps 671 mmHg 81%
    07:00 +18°C° 0 mm 1 mps 672 mmHg 77%
    08:00 +20°C° 0 mm 1 mps 672 mmHg 72%
    09:00 +20°C° 0 mm 2 mps 673 mmHg 64%
    10:00 +23°C° 0 mm 2 mps 673 mmHg 56%
    11:00 +25°C° 0 mm 2 mps 673 mmHg 47%
    12:00 +26°C° 0 mm 3 mps 673 mmHg 44%
    13:00 +27°C° 0 mm 3 mps 672 mmHg 40%
    14:00 +28°C° 0 mm 3 mps 672 mmHg 37%
    15:00 +27°C° 0 mm 3 mps 671 mmHg 41%
    16:00 +26°C° 0 mm 3 mps 671 mmHg 45%
    17:00 +25°C° 0 mm 3 mps 670 mmHg 49%
    18:00 +24°C° 0 mm 3 mps 670 mmHg 56%
    19:00 +21°C° 0 mm 2 mps 670 mmHg 62%
    20:00 +19°C° 0 mm 2 mps 671 mmHg 68%
    21:00 +18°C° 0 mm 2 mps 671 mmHg 69%
    22:00 +18°C° 0 mm 2 mps 671 mmHg 69%
    23:00 +18°C° 0 mm 2 mps 671 mmHg 69%

    3 March, Tuesday

    Time Temperature Precipitation Wind Pressure Humidity
    00:00 +17°C° 0 mm 2 mps 671 mmHg 70%
    01:00 +17°C° 0 mm 2 mps 671 mmHg 72%
    02:00 +18°C° 0 mm 1 mps 671 mmHg 73%
    03:00 +18°C° 0 mm 1 mps 671 mmHg 74%
    04:00 +16°C° 0 mm 1 mps 671 mmHg 75%
    05:00 +16°C° 0 mm 1 mps 671 mmHg 76%
    06:00 +19°C° 0 mm 1 mps 672 mmHg 72%
    07:00 +20°C° 0 mm 1 mps 672 mmHg 67%
    08:00 +22°C° 0 mm 1 mps 673 mmHg 63%
    09:00 +23°C° 0 mm 1 mps 673 mmHg 58%
    10:00 +25°C° 0 mm 2 mps 673 mmHg 52%
    11:00 +27°C° 0 mm 2 mps 674 mmHg 47%
    12:00 +27°C° 0 mm 3 mps 673 mmHg 48%
    13:00 +27°C° 0 mm 4 mps 673 mmHg 48%
    14:00 +28°C° 0 mm 4 mps 672 mmHg 49%
    15:00 +27°C° 0.5 mm 4 mps 672 mmHg 54%
    16:00 +25°C° 0.5 mm 4 mps 672 mmHg 60%
    17:00 +23°C° 0.5 mm 5 mps 671 mmHg 65%
    18:00 +22°C° 0.1 mm 4 mps 672 mmHg 69%
    19:00 +21°C° 0.1 mm 3 mps 672 mmHg 74%
    20:00 +19°C° 0.1 mm 3 mps 673 mmHg 78%
    21:00 +19°C° 0 mm 2 mps 673 mmHg 79%
    22:00 +18°C° 0 mm 2 mps 673 mmHg 81%
    23:00 +17°C° 0 mm 2 mps 673 mmHg 82%

    4 March, Wednesday

    Time Temperature Precipitation Wind Pressure Humidity
    00:00 +17°C° 0 mm 2 mps 673 mmHg 85%
    01:00 +17°C° 0 mm 2 mps 673 mmHg 87%
    02:00 +16°C° 0 mm 2 mps 672 mmHg 90%
    03:00 +16°C° 0 mm 2 mps 672 mmHg 92%
    04:00 +16°C° 0 mm 2 mps 673 mmHg 94%
    05:00 +15°C° 0 mm 1 mps 673 mmHg 96%
    06:00 +16°C° 0 mm 2 mps 674 mmHg 91%
    07:00 +18°C° 0 mm 3 mps 674 mmHg 87%
    08:00 +19°C° 0 mm 4 mps 675 mmHg 82%
    09:00 +20°C° 0 mm 4 mps 675 mmHg 74%
    10:00 +22°C° 0 mm 5 mps 675 mmHg 66%
    11:00 +25°C° 0 mm 5 mps 675 mmHg 58%
    12:00 +25°C° 0 mm 5 mps 675 mmHg 56%
    13:00 +26°C° 0 mm 5 mps 674 mmHg 53%
    14:00 +26°C° 0 mm 5 mps 674 mmHg 50%
    15:00 +25°C° 0 mm 5 mps 673 mmHg 50%
    16:00 +25°C° 0 mm 4 mps 673 mmHg 50%
    17:00 +23°C° 0 mm 4 mps 672 mmHg 50%
    18:00 +21°C° 0 mm 3 mps 672 mmHg 55%
    19:00 +20°C° 0 mm 2 mps 673 mmHg 60%
    20:00 +19°C° 0 mm 1 mps 673 mmHg 65%
    21:00 +19°C° 0 mm 1 mps 673 mmHg 72%
    22:00 +17°C° 0 mm 2 mps 673 mmHg 78%
    23:00 +17°C° 0 mm 2 mps 673 mmHg 84%

    5 March, Thursday

    Time Temperature Precipitation Wind Pressure Humidity
    00:00 +17°C° 0 mm 2 mps 673 mmHg 87%
    01:00 +16°C° 0 mm 2 mps 673 mmHg 89%
    02:00 +16°C° 0 mm 1 mps 672 mmHg 92%
    03:00 +16°C° 0 mm 1 mps 672 mmHg 94%
    04:00 +16°C° 0 mm 1 mps 672 mmHg 95%
    05:00 +15°C° 0 mm 1 mps 673 mmHg 97%
    06:00 +17°C° 0 mm 2 mps 673 mmHg 90%
    07:00 +18°C° 0 mm 2 mps 673 mmHg 82%
    08:00 +20°C° 0 mm 3 mps 674 mmHg 75%
    09:00 +21°C° 0 mm 3 mps 674 mmHg 66%
    10:00 +23°C° 0 mm 4 mps 674 mmHg 57%
    11:00 +26°C° 0 mm 4 mps 674 mmHg 48%
    12:00 +26°C° 0 mm 4 mps 674 mmHg 46%
    13:00 +27°C° 0 mm 4 mps 673 mmHg 45%
    14:00 +27°C° 0 mm 4 mps 673 mmHg 43%
    15:00 +27°C° 0 mm 4 mps 672 mmHg 45%
    16:00 +26°C° 0 mm 4 mps 672 mmHg 46%
    17:00 +25°C° 0 mm 4 mps 671 mmHg 48%
    18:00 +22°C° 0 mm 3 mps 671 mmHg 53%
    19:00 +20°C° 0 mm 2 mps 671 mmHg 57%
    20:00 +18°C° 0 mm 2 mps 672 mmHg 62%
    21:00 +18°C° 0 mm 2 mps 672 mmHg 63%
    22:00 +19°C° 0 mm 1 mps 672 mmHg 65%
    23:00 +18°C° 0 mm 1 mps 672 mmHg 66%
    Show more